CAPE
0 0 0 0 0 0 0 0 0 0 0 0 0 0 0 0 1 1 1 4 6 4 6 7 8 15 24
0 0 0 0 0 0 0 0 0 0 0 0 0 0 0 0 0 0 1 1 0 1 3 7 11 14 20
0 0 0 0 0 0 0 0 0 0 0 0 0 0 0 0 0 0 0 0 0 3 4 7 11 11 12
0 0 0 0 0 0 0 0 0 0 0 0 0 0 0 0 0 0 0 0 0 1 4 7 13 13 16
0 0 0 0 0 0 0 0 0 0 0 0 0 0 0 0 0 0 0 0 4 9 13 11 10 11 12
0 0 0 0 0 0 0 0 0 0 0 0 0 0 0 0 0 0 0 0 3 2 2 3 5 9 12
0 0 0 0 0 0 0 0 0 0 0 0 0 0 0 0 0 0 0 2 1 0 1 3 7 10 13
0 0 0 0 0 0 0 0 0 0 0 0 0 0 0 0 0 0 1 0 0 1 1 3 4 7 14
0 0 0 0 0 0 0 0 0 0 0 0 0 0 0 0 0 0 0 0 0 0 0 2 6 11 2
0 0 0 0 0 0 0 0 0 0 0 0 0 0 0 0 0 0 0 0 0 0 0 0 1 0 0
0 0 0 0 0 0 0 0 0 0 0 0 0 0 0 0 0 0 0 0 0 0 0 0 0 1 0
0 0 0 0 0 0 0 0 0 0 0 0 0 0 0 0 0 0 0 0 0 0 0 0 0 0 1
0 0 0 0 0 0 0 0 0 0 0 0 0 0 0 0 0 0 0 0 0 0 0 0 0 0 0
0 0 0 0 0 0 0 0 0 0 0 0 0 0 0 0 0 0 0 0 0 0 0 0 0 0 0
0 0 0 0 0 0 0 0 0 0 0 0 0 0 0 0 0 0 0 0 0 0 0 0 0 0 0
0 0 0 0 0 0 0 0 0 0 0 0 0 0 0 0 0 0 0 0 0 0 0 0 0 0 0
0 0 0 0 0 0 0 0 0 0 0 0 0 0 0 0 0 0 0 0 0 0 0 0 0 0 0
CIN
-0 -0 -0 -0 -0 -0 -0 -0 -0 -0 -0 -0 -0 -0 -0 -0 -0 -0 -0 -0 -0 -0 -0 -0 -0 -0 -0
-0 -0 -0 -0 -0 -0 -0 -0 -0 -0 -0 -0 -0 -0 -0 -0 -0 -0 -0 -0 -0 -0 -0 -0 -0 -0 -0
-0 -0 -0 -0 -0 -0 -0 -0 -0 -0 -0 -0 -0 -0 -0 -0 -0 -0 -0 -0 -0 -0 -0 -0 -0 -0 -0
-0 -0 -0 -0 -0 -0 -0 -0 -0 -0 -0 -0 -0 -0 -0 -0 -0 -0 -0 -0 -0 -0 -0 -0 -0 -0 -0
-0 -0 -0 -0 -0 -0 -0 -0 -0 -0 -0 -0 -0 -0 -0 -0 -0 -0 -0 -0 -0 -0 -0 -0 -0 -0 -0
-0 -0 -0 -0 -0 -0 -0 -0 -0 -0 -0 -0 -0 -0 -0 -0 -0 -0 -0 -0 -0 -0 -0 -0 -0 -0 -0
-0 -0 -0 -0 -0 -0 -0 -0 -0 -0 -0 -0 -0 -0 -0 -0 -0 -0 -0 -0 -0 -0 -0 -0 -0 -0 -0
-0 -0 -0 -0 -0 -0 -0 -0 -0 -0 -0 -0 -0 -0 -0 -0 -0 -0 -0 -0 -0 -0 -0 -0 -0 -0 -0
-0 -0 -0 -0 -0 -0 -0 -0 -0 -0 -0 -0 -0 -0 -0 -0 -0 -0 -0 -0 -0 -0 -0 -0 -0 -0 -0
-0 -0 -0 -0 -0 -0 -0 -0 -0 -0 -0 -0 -0 -0 -0 -0 -0 -0 -0 -0 -0 -0 -0 -0 -0 -0 -0
-0 -0 -0 -0 -0 -0 -0 -0 -0 -0 -0 -0 -0 -0 -0 -0 -0 -0 -0 -0 -0 -0 -0 -0 -0 -0 -0
-0 -0 -0 -0 -0 -0 -0 -0 -0 -0 -0 -0 -0 -0 -0 -0 -0 -0 -0 -0 -0 -0 -0 -0 -0 -0 -0
-0 -0 -0 -0 -0 -0 -0 -0 -0 -0 -0 -0 -0 -0 -0 -0 -0 -0 -0 -0 -0 -0 -0 -0 -0 -0 -0
-0 -0 -0 -0 -0 -0 -0 -0 -0 -0 -0 -0 -0 -0 -0 -0 -0 -0 -0 -0 -0 -0 -0 -0 -0 -0 -0
-0 -0 -0 -0 -0 -0 -0 -0 -0 -0 -0 -0 -0 -0 -0 -0 -0 -0 -0 -0 -0 -0 -0 -0 -0 -0 -0
-0 -0 -0 -0 -0 -0 -0 -0 -0 -0 -0 -0 -0 -0 -0 -0 -0 -0 -0 -0 -0 -0 -0 -0 -0 -0 -0
-0 -0 -0 -0 -0 -0 -0 -0 -0 -0 -0 -0 -0 -0 -0 -0 -0 -0 -0 -0 -0 -0 -0 -0 -0 -0 -0
Wind_Speed
2 2 3 6 4 4 4 3 0 1 1 0 2 5 6 6 7 10 13 13 12 14 14 15 16 17 19
3 3 3 3 4 3 2 3 2 2 1 2 3 4 5 6 9 11 12 12 13 14 14 15 16 17 19
4 2 3 3 3 2 2 2 3 2 2 2 1 3 6 7 9 10 12 12 13 14 15 16 17 18 19
4 4 3 2 3 3 2 1 2 0 0 4 3 5 6 7 8 8 10 14 14 14 15 14 14 16 20
4 4 3 3 4 3 3 2 2 2 0 1 1 2 2 5 6 11 12 11 11 11 13 15 17 18 21
3 6 4 4 3 4 4 3 1 1 1 2 1 2 2 2 11 12 9 7 12 13 17 18 19 20 21
8 4 5 6 6 4 4 3 2 1 1 2 1 3 2 4 12 9 6 10 15 17 18 19 20 21 22
6 5 4 8 6 4 4 3 2 1 1 2 1 2 4 4 8 7 7 17 16 19 19 21 21 21 22
14 13 14 14 10 5 3 2 1 1 1 0 1 2 4 2 2 8 16 16 17 20 22 20 20 21 12
7 9 7 8 12 4 5 3 1 1 2 0 1 1 3 2 2 3 4 12 19 20 19 19 21 9 8
7 5 5 4 4 4 4 3 3 1 3 2 2 1 2 3 4 4 4 8 9 10 16 19 23 20 11
6 4 4 4 4 3 3 3 2 2 2 3 2 3 3 3 4 2 6 7 6 6 7 13 21 23 23
5 4 3 4 4 4 3 2 0 3 2 1 3 2 2 4 4 4 8 4 5 5 7 8 10 9 13
5 4 4 3 2 2 2 2 2 2 2 1 1 3 3 4 3 5 6 3 4 8 8 9 9 9 11
6 6 5 4 3 1 1 2 3 1 2 3 3 4 5 5 4 5 6 6 7 8 8 10 9 10 10
5 6 6 5 4 2 2 2 2 1 2 1 2 3 4 5 13 6 6 6 7 8 8 9 11 10 10
5 5 5 4 7 3 2 2 1 2 2 1 1 1 2 3 4 11 3 8 8 9 9 9 12 14 12
Wind_Direction
106 167 133 148 145 144 138 142 177 140 73 60 3 322 323 327 330 328 318 313 319 316 316 317 315 312 315
146 136 130 139 141 136 170 147 188 241 309 354 325 319 322 324 321 318 319 322 315 313 311 312 312 313 309
139 133 116 138 124 118 168 162 217 217 37 37 340 344 321 320 326 328 317 314 310 311 315 315 312 314 306
103 115 116 132 112 151 166 119 211 232 340 133 12 340 330 336 338 329 319 317 314 311 307 305 313 321 318
116 117 129 140 175 161 153 157 229 220 240 236 326 339 322 340 315 316 321 317 320 326 326 321 319 317 314
136 150 146 152 129 163 143 156 226 182 181 270 65 295 293 293 305 318 316 333 344 338 330 318 313 312 308
141 148 142 167 149 140 153 141 179 183 100 280 105 289 277 290 314 320 315 349 333 333 329 325 318 312 309
117 134 127 145 124 131 138 123 102 122 131 247 83 276 297 300 337 349 328 334 329 329 324 319 315 312 310
118 130 131 131 128 114 114 117 222 143 50 109 39 310 296 321 325 347 339 329 325 324 324 325 319 319 317
123 101 104 139 141 123 146 135 142 317 163 295 329 33 314 284 263 316 295 308 324 322 326 324 321 316 304
110 107 93 98 96 113 127 129 145 194 201 142 176 279 219 286 294 281 289 308 315 316 317 318 317 316 308
129 131 146 138 140 129 115 116 113 186 243 148 201 175 202 269 273 278 299 293 286 284 295 300 303 305 303
150 155 147 138 124 104 101 115 200 263 255 186 178 217 203 242 271 285 306 290 286 278 296 289 287 290 298
139 118 108 121 94 115 125 93 28 315 330 34 212 201 262 235 227 275 282 267 284 295 287 285 286 280 283
145 142 140 145 126 127 108 121 147 161 308 315 310 260 238 232 283 259 273 276 279 284 300 294 287 283 283
146 156 156 146 146 157 136 137 176 159 220 233 301 347 335 282 222 254 275 271 284 292 293 291 298 301 296
155 168 151 147 168 174 161 174 192 190 237 224 83 90 331 299 278 267 230 294 299 299 290 287 291 297 304